Weather History for Whiting Fld NAS, FL

Change the Weather History Date:

Monday, April 1, 2013

  Actual Average Record
Temperature  
Mean Temperature 64 °F -  
Max Temperature 75 °F 73 °F 87 °F (2012)
Min Temperature 51 °F 52 °F 37 °F (2004)
Degree Days  
Heating Degree Days 1    
Growing Degree Days 14 (Base 50)    
Moisture  
Dew Point 55 °F    
Average Humidity 79    
Maximum Humidity 94    
Minimum Humidity 44    
Precipitation  
Precipitation 0.00 in - - ()
Sea Level Pressure  
Sea Level Pressure 29.97 in    
Wind  
Wind Speed 5 mph (NW)    
Max Wind Speed 12 mph    
Max Gust Speed 18 mph    
Visibility 6 miles    
Events Fog    
Averages and records for this station are not official NWS values.
T = Trace of Precipitation, MM = Missing Value Source: NWS Daily Summary

Daily Weather History Graph

Daily Weather History Graph

Search for Another Location

Airport:

Trip Planner

Search our weather history database for the weather conditions in past years. The results will help you decide how hot, cold, wet, or windy it might be!

Date:

Astronomy

Apr. 01, 2013 Rise Set
Actual Time 6:36 AM CDT 7:07 PM CDT
Civil Twilight 6:12 AM CDT 7:31 PM CDT
Nautical Twilight 5:44 AM CDT 8:00 PM CDT
Astronomical Twilight 5:15 AM CDT 8:29 PM CDT
Moon No Moon Rise 10:40 AM CDT (4/1)
Length of Visible Light 13h 19m
Length of Day
12h 30m
Waning Gibbous, 67% of the Moon is Illuminated
Apr 1
Waning Gibbous
Apr 2
Last Quarter
Apr 10
New
Apr 18
First Quarter
Apr 25
Full

Hourly Weather History & Observations

Time (CDT) Temp. Dew Point Humidity Pressure Visibility Wind Dir Wind Speed Gust Speed Precip Events Conditions
12:56 AM 64.9 °F 62.1 °F 90% 29.88 in 6.0 mi SW 4.6 mph - N/A   Clear
1:56 AM 64.0 °F 61.0 °F 90% 29.88 in 6.0 mi SW 4.6 mph - N/A   Clear
2:36 AM 62.6 °F 60.8 °F 94% 29.93 in 4.0 mi West 6.9 mph - N/A   Scattered Clouds
2:44 AM 62.6 °F 60.8 °F 94% 29.93 in 4.0 mi WNW 6.9 mph - N/A   Mostly Cloudy
2:56 AM 63.0 °F 59.0 °F 87% 29.89 in 5.0 mi West 6.9 mph - N/A   Overcast
3:56 AM 60.1 °F 57.0 °F 90% 29.90 in 7.0 mi WNW 4.6 mph - N/A   Mostly Cloudy
4:18 AM 59.0 °F 55.4 °F 88% 29.94 in 6.0 mi Calm Calm - N/A   Scattered Clouds
4:34 AM 57.2 °F 55.4 °F 94% 29.94 in 1.8 mi Calm Calm - N/A   Partly Cloudy
4:39 AM 57.2 °F 55.4 °F 94% 29.94 in 0.8 mi Calm Calm - N/A   Mist
4:52 AM 57.2 °F 53.6 °F 88% 29.94 in 0.2 mi Calm Calm - N/A Fog Fog
4:56 AM 57.9 °F 55.0 °F 90% 29.91 in 0.2 mi Calm Calm - N/A Fog Fog
5:44 AM 57.2 °F 53.6 °F 88% 29.97 in 1.2 mi WSW 4.6 mph - N/A   Mostly Cloudy
5:47 AM 57.2 °F 53.6 °F 88% 29.97 in 3.0 mi WSW 4.6 mph - N/A   Mostly Cloudy
5:54 AM 57.2 °F 53.6 °F 88% 29.98 in 4.0 mi West 4.6 mph - N/A   Scattered Clouds
5:56 AM 57.0 °F 54.0 °F 89% 29.94 in 4.0 mi WSW 5.8 mph - N/A   Scattered Clouds
6:56 AM 57.2 °F 55.4 °F 94% 29.96 in 5.0 mi West 6.9 mph - N/A   Scattered Clouds
7:18 AM 57.2 °F 55.4 °F 94% 30.01 in 4.0 mi West 6.9 mph - N/A   Scattered Clouds
7:56 AM 59.0 °F 55.9 °F 90% 29.99 in 5.0 mi WNW 5.8 mph - N/A   Mostly Cloudy
8:56 AM 61.0 °F 55.0 °F 81% 30.00 in 9.0 mi NW 11.5 mph - N/A   Mostly Cloudy
9:56 AM 63.0 °F 55.0 °F 75% 30.01 in 7.0 mi NNW 9.2 mph - N/A   Mostly Cloudy
10:56 AM 63.0 °F 55.0 °F 75% 30.02 in 8.0 mi NNW 8.1 mph - N/A   Mostly Cloudy
11:56 AM 64.9 °F 55.0 °F 70% 30.02 in 9.0 mi North 8.1 mph - N/A   Mostly Cloudy
12:33 PM 66.2 °F 55.4 °F 68% 30.07 in 9.0 mi NNW 10.4 mph - N/A   Mostly Cloudy
12:56 PM 66.9 °F 55.9 °F 68% 30.02 in 10.0 mi NNW 9.2 mph - N/A   Mostly Cloudy
1:56 PM 70.0 °F 55.0 °F 59% 29.99 in 10.0 mi NNW 10.4 mph - N/A   Scattered Clouds
2:56 PM 73.0 °F 55.0 °F 53% 29.98 in 10.0 mi Variable 5.8 mph - N/A   Partly Cloudy
3:56 PM 75.0 °F 53.1 °F 46% 29.96 in 10.0 mi North 9.2 mph 18.4 mph N/A   Scattered Clouds
4:56 PM 75.0 °F 52.0 °F 44% 29.96 in 10.0 mi North 9.2 mph - N/A   Scattered Clouds
5:56 PM 73.9 °F 51.1 °F 45% 29.96 in 10.0 mi NNW 9.2 mph - N/A   Partly Cloudy
6:56 PM 70.0 °F 51.1 °F 51% 29.97 in 10.0 mi North 6.9 mph - N/A   Clear
7:56 PM 64.0 °F 51.1 °F 63% 29.99 in 10.0 mi North 6.9 mph - N/A   Clear
8:56 PM 57.0 °F 51.1 °F 81% 29.99 in 10.0 mi Calm Calm - N/A   Clear
9:56 PM 53.1 °F 48.9 °F 86% 30.00 in 10.0 mi Calm Calm - N/A   Clear
10:56 PM 54.0 °F 50.0 °F 86% 30.01 in 9.0 mi Calm Calm - N/A   Clear
11:56 PM 51.1 °F 46.9 °F 86% 30.01 in 8.0 mi Calm Calm - N/A   Clear